Location: Winthrop
(48.4780°N, 120.1850°W)
Time: 19:06:42
(UTC-08:00)

Envisat - Pass Details

Date: 02 December 2022
Orbit: 763 x 765 km, 98.2° (Epoch: 05 February)

Event Time Altitude Azimuth Distance (km) Brightness Sun altitude
Rises 05:17:04 0° 7° (N) 3,245 6.2 -21.7°
Reaches altitude 10° 05:19:32 10° 358° (N) 2,314 5.4 -21.2°
Enters shadow 05:22:10 26° 335° (NNW) 1,491 4.2 -20.8°
